Location: Utrecht
(52.0907°N, 5.1214°E)
Time: 07:43:30
(UTC+02:00)

SPROUT - Pass Details

Date: 01 July 2022
Orbit: 588 x 598 km, 97.9° (Epoch: 18 August)

Event Time Altitude Azimuth Distance (km) Brightness Sun altitude
Exits shadow 02:19:12 23° 168° (SSE) 1,279 ? -14.4°
Maximum altitude 02:21:47 84° 255° (WSW) 600 ? -14.3°
Drops below altitude 10° 02:25:59 10° 344° (NNW) 1,930 ? -14.2°
Sets 02:28:09 0° 346° (NNW) 2,838 ? -14.2°
